Temp
47 48 48 47 47 48 45 44 38 44 45 50 52 53 56 58 59 58 58 58 58 58 59 59 59 59 59 58 57 57 55 52 50 51 52 51 50 51 50 50 50 51 52 53
30 46 47 44 48 49 49 50 49 48 47 56 57 58 56 57 57 56 57 57 58 59 59 58 58 58 58 57 57 57 56 55 54 53 51 49 49 49 48 48 48 49 49 50
33 45 44 35 44 48 50 52 51 44 50 56 54 55 55 56 56 55 56 56 57 57 58 58 58 58 55 56 58 57 55 55 54 54 52 50 51 50 47 46 46 47 48 49
32 37 25 46 56 55 51 54 55 55 54 55 55 57 58 58 55 55 55 55 56 56 56 57 59 58 57 57 56 55 55 53 53 51 51 43 48 46 44 46 46 47 47 48
30 31 41 47 52 51 49 48 57 54 56 56 57 57 54 58 57 56 56 56 56 56 57 57 55 54 54 54 54 53 52 50 50 50 49 48 42 36 39 43 43 44 47 46
31 28 28 48 56 60 57 38 57 57 55 54 55 45 47 56 57 56 56 56 54 55 56 54 52 52 52 51 51 49 49 49 49 50 49 47 46 43 43 45 43 43 43 44
32 30 39 55 57 59 36 42 59 59 57 55 50 53 54 57 57 58 57 56 55 54 54 52 52 51 49 49 47 49 49 50 49 50 48 47 45 44 42 41 41 40 41 42
34 30 27 57 55 44 52 57 57 57 56 54 55 55 55 56 56 56 55 56 55 53 52 53 52 50 48 46 47 48 47 47 48 49 49 48 44 42 41 40 38 38 38 38
39 39 55 60 57 59 59 56 56 56 58 56 54 54 55 54 55 55 55 55 55 53 52 52 52 49 45 45 46 46 45 46 46 46 46 44 41 39 38 38 36 36 36 36
44 50 55 58 61 61 60 59 60 59 58 57 54 55 54 55 54 54 54 53 52 50 49 48 49 48 45 46 45 45 44 44 44 42 40 40 40 38 37 36 35 35 35 35
47 53 56 58 59 60 60 60 60 60 59 57 56 54 54 54 53 52 52 51 50 48 46 46 46 45 46 46 45 43 42 42 41 39 38 37 37 37 36 38 37 35 35 35
43 54 53 55 59 62 59 58 59 58 57 57 56 55 55 53 52 51 48 48 47 46 45 44 44 44 45 46 44 41 40 39 37 36 36 36 36 35 37 37 37 37 36 36
54 59 59 61 62 63 60 60 60 58 58 55 56 55 54 52 51 45 49 48 47 46 45 44 43 43 45 45 43 41 39 39 38 36 36 35 34 34 33 36 37 36 36 36
61 59 56 58 56 60 60 62 58 59 59 57 57 55 52 50 50 50 49 50 50 48 46 45 44 43 45 43 41 40 39 36 37 36 36 35 34 34 34 33 32 34 37 36
59 60 58 60 60 59 59 60 56 55 55 53 54 52 52 50 49 50 51 52 51 48 47 46 44 44 45 42 41 39 38 37 37 36 36 35 34 34 34 34 33 33 35 35
58 59 59 57 56 57 56 56 53 53 53 53 52 51 51 51 51 51 51 51 46 43 45 42 43 44 44 42 40 38 38 36 35 36 35 34 34 33 33 33 33 33 33 34
53 51 53 54 54 55 55 56 54 54 53 52 52 52 51 50 49 47 47 46 45 42 43 42 39 42 38 40 39 37 36 36 36 36 35 34 34 33 33 32 32 32 33 35
59 58 57 56 55 53 54 54 54 55 52 52 49 43 36 37 39 38 37 37 36 35 36 37 36 36 36 38 38 37 36 36 35 35 35 34 34 34 33 32 33 33 33 34
58 57 56 57 56 55 54 54 53 48 42 41 41 36 36 34 34 34 34 33 34 34 35 35 35 34 37 36 35 36 36 35 35 35 34 34 33 33 33 33 32 33 33 33
56 57 56 55 56 54 51 42 42 40 40 39 33 32 33 33 34 34 34 33 35 37 39 39 37 38 36 37 35 36 36 35 34 34 34 33 33 32 33 33 33 32 32 32
55 54 48 44 35 35 34 34 33 32 33 32 32 31 32 33 35 32 34 37 38 40 38 37 39 39 37 36 36 36 36 35 34 34 33 32 32 32 32 33 33 32 32 32
50 38 34 35 33 32 33 34 32 31 32 30 30 30 29 33 36 36 34 37 39 34 36 37 37 36 35 34 36 35 35 35 34 34 33 32 32 31 32 32 32 32 32 32
41 40 37 35 34 34 37 32 30 31 30 30 30 33 34 37 38 37 35 40 39 36 36 36 36 34 34 34 35 34 34 33 33 33 32 32 32 32 32 32 32 32 31 31
42 41 40 39 39 37 34 33 34 33 30 32 33 31 36 37 37 39 40 37 34 32 35 35 34 33 33 34 34 33 33 33 33 33 33 33 32 32 32 32 31 32 32 32
42 41 41 39 39 39 39 38 38 37 37 40 41 40 41 40 37 37 37 37 34 35 36 34 33 34 33 33 33 33 33 34 33 33 33 32 32 32 32 32 31 31 31 32
43 42 43 45 43 43 42 41 41 41 41 39 39 37 37 37 38 37 37 35 36 34 35 34 33 33 33 34 33 34 34 34 34 33 33 32 32 32 32 31 31 31 32 32
44 41 43 42 43 43 42 40 39 38 37 36 35 36 36 36 36 35 34 34 34 33 33 33 33 33 34 34 33 34 34 34 34 33 33 32 32 32 31 31 32 32 32 32
MSLP
1017.47 1017.27 1017.11 1016.82 1016.64 1016.75 1016.89 1017.43 1017.23 1016.70 1016.55 1016.50 1017.09 1017.46 1017.44 1017.64 1017.74 1017.97 1018.17 1018.37 1018.54 1018.55 1018.49 1018.53 1018.61 1018.65 1018.66 1018.63 1018.51 1018.41 1018.16 1018.25 1018.35 1018.35 1018.06 1017.72 1017.50 1017.09 1017.02 1016.64 1016.11 1015.54 1015.00 1014.88
1018.64 1018.02 1017.35 1016.76 1016.31 1016.09 1015.90 1015.83 1016.00 1016.14 1015.90 1016.13 1016.85 1017.03 1017.39 1017.75 1017.95 1018.34 1018.44 1018.55 1018.66 1018.67 1018.71 1018.75 1018.81 1018.89 1018.84 1018.87 1018.59 1018.25 1018.14 1018.10 1018.24 1018.29 1018.32 1018.25 1018.03 1017.78 1017.35 1016.99 1016.64 1016.23 1015.79 1014.89
1018.77 1017.96 1017.39 1016.50 1015.21 1015.07 1015.00 1015.05 1015.14 1015.35 1015.60 1016.16 1016.61 1017.11 1017.52 1017.77 1018.21 1018.77 1018.92 1019.10 1019.19 1019.17 1019.23 1019.28 1019.13 1018.98 1019.02 1018.94 1018.67 1018.42 1018.12 1018.45 1018.25 1018.47 1018.25 1018.38 1017.82 1017.80 1017.82 1017.56 1017.19 1016.72 1016.13 1015.77
1019.42 1018.83 1017.39 1014.80 1014.13 1013.97 1014.15 1014.22 1014.60 1014.90 1015.44 1016.24 1016.85 1017.31 1017.54 1017.95 1018.68 1019.13 1019.38 1019.58 1019.76 1019.82 1019.80 1019.64 1019.45 1019.42 1019.41 1019.19 1018.85 1018.73 1018.68 1018.76 1018.57 1018.66 1018.15 1018.29 1017.78 1017.87 1017.86 1017.41 1017.12 1016.75 1015.93 1015.57
1019.84 1018.53 1016.18 1014.57 1013.68 1013.58 1013.58 1013.90 1014.13 1014.64 1015.23 1016.29 1016.87 1017.34 1017.95 1018.62 1019.19 1019.50 1019.70 1019.94 1020.12 1020.28 1020.11 1019.92 1020.08 1020.35 1020.27 1019.86 1019.79 1019.56 1019.48 1019.61 1019.53 1019.10 1018.53 1018.39 1018.05 1018.06 1017.85 1017.47 1016.98 1016.65 1016.05 1015.72
1019.81 1018.33 1015.85 1013.39 1013.08 1013.41 1013.82 1013.90 1013.79 1014.41 1015.16 1016.12 1016.94 1017.38 1018.60 1019.09 1019.40 1019.58 1019.92 1020.20 1020.57 1020.60 1020.45 1020.57 1020.93 1020.96 1020.61 1020.35 1020.17 1020.36 1020.25 1019.95 1019.74 1019.29 1018.79 1018.54 1018.28 1018.28 1018.20 1017.63 1017.08 1016.44 1015.89 1015.09
1018.76 1017.79 1015.36 1013.33 1013.06 1013.68 1014.35 1013.68 1012.90 1014.10 1015.27 1016.30 1017.11 1017.72 1018.46 1018.97 1019.32 1019.63 1019.90 1020.18 1020.67 1020.77 1020.68 1020.97 1021.18 1021.24 1021.05 1020.85 1020.84 1020.72 1020.60 1020.27 1019.87 1019.33 1018.78 1018.55 1018.56 1018.46 1018.18 1017.75 1017.31 1016.90 1016.39 1015.93
1017.98 1017.06 1014.93 1012.98 1013.03 1013.57 1013.40 1013.70 1013.99 1014.77 1015.72 1016.62 1017.28 1018.04 1018.69 1019.03 1019.37 1019.63 1019.89 1020.14 1020.58 1020.79 1020.87 1020.87 1021.18 1021.25 1021.31 1021.27 1021.23 1020.98 1020.64 1019.98 1019.26 1018.79 1018.51 1018.27 1018.36 1018.32 1018.16 1017.73 1017.25 1016.93 1016.35 1015.51
1015.25 1014.13 1012.87 1011.92 1012.51 1013.28 1013.71 1014.03 1014.72 1015.37 1015.93 1016.75 1017.47 1018.07 1018.60 1019.11 1019.48 1019.77 1020.02 1020.31 1020.61 1020.81 1020.90 1020.95 1021.13 1021.35 1021.52 1021.50 1021.33 1021.03 1020.58 1019.97 1019.43 1018.91 1018.55 1018.58 1018.34 1018.11 1017.81 1017.54 1017.21 1016.50 1015.79 1015.22
1013.68 1012.82 1012.18 1012.23 1012.36 1013.04 1013.73 1014.12 1014.75 1015.49 1016.20 1016.80 1017.43 1018.00 1018.69 1019.14 1019.54 1019.98 1020.33 1020.64 1020.95 1021.07 1021.11 1021.22 1021.38 1021.55 1021.73 1021.52 1021.42 1021.13 1020.65 1020.24 1019.78 1019.33 1019.18 1018.91 1018.61 1018.26 1017.83 1017.32 1016.79 1016.23 1015.76 1015.09
1012.19 1011.91 1011.78 1011.99 1012.25 1012.78 1013.48 1014.28 1014.79 1015.44 1016.07 1016.73 1017.49 1018.14 1018.67 1019.22 1019.78 1020.35 1020.69 1021.00 1021.25 1021.36 1021.48 1021.57 1021.65 1021.69 1021.59 1021.45 1021.27 1021.08 1020.80 1020.39 1019.96 1019.72 1019.42 1019.02 1018.64 1018.19 1017.64 1017.04 1016.57 1015.89 1015.40 1014.80
1010.82 1011.39 1011.46 1011.63 1012.12 1012.46 1013.03 1013.96 1014.83 1015.47 1016.15 1016.89 1017.77 1018.17 1018.75 1019.33 1020.09 1020.68 1021.15 1021.33 1021.46 1021.62 1021.80 1021.91 1021.92 1021.74 1021.57 1021.31 1021.22 1021.10 1020.79 1020.39 1020.01 1019.61 1019.17 1018.68 1018.21 1017.54 1017.19 1016.56 1015.95 1015.48 1014.97 1014.46
1010.38 1010.76 1010.93 1011.23 1011.76 1012.15 1012.70 1013.45 1014.43 1015.40 1015.94 1016.89 1017.85 1018.40 1018.94 1019.58 1020.34 1021.02 1021.02 1021.21 1021.31 1021.54 1021.69 1021.83 1021.75 1021.58 1021.31 1021.10 1021.14 1021.11 1020.79 1020.34 1019.93 1019.45 1018.87 1018.35 1017.81 1017.16 1016.24 1015.55 1015.17 1014.54 1013.96 1013.26
1010.11 1010.63 1010.81 1011.28 1011.57 1012.33 1012.79 1013.17 1014.12 1015.12 1015.92 1016.76 1017.55 1018.48 1019.23 1019.80 1020.31 1020.46 1020.55 1020.76 1020.91 1021.07 1021.29 1021.47 1021.36 1021.21 1020.89 1020.95 1021.02 1020.83 1020.52 1020.20 1019.71 1019.19 1018.67 1018.15 1017.62 1016.99 1016.28 1015.41 1014.42 1013.73 1013.21 1012.58
1009.70 1010.32 1010.81 1011.17 1011.77 1012.43 1013.13 1013.27 1014.07 1015.21 1016.28 1017.31 1018.09 1018.62 1019.14 1019.63 1019.93 1020.14 1020.30 1020.42 1020.57 1020.79 1020.97 1021.18 1021.12 1020.93 1020.94 1020.89 1020.75 1020.53 1020.15 1019.67 1019.25 1018.75 1018.20 1017.75 1017.25 1016.59 1015.86 1015.09 1014.27 1013.42 1012.55 1011.74
1009.73 1010.07 1010.55 1010.96 1011.77 1012.34 1013.24 1013.62 1014.52 1015.58 1016.61 1017.47 1018.14 1018.73 1019.16 1019.55 1019.87 1020.07 1020.18 1020.42 1020.81 1021.00 1021.15 1021.05 1020.91 1020.79 1020.70 1020.70 1020.47 1020.10 1019.69 1019.34 1018.86 1018.27 1017.65 1017.15 1016.67 1016.01 1015.27 1014.52 1013.76 1012.96 1012.12 1011.30
1009.13 1009.70 1010.30 1010.79 1011.53 1012.21 1012.94 1013.79 1014.79 1015.77 1016.58 1017.56 1018.34 1018.80 1019.33 1019.80 1020.16 1020.49 1020.71 1021.03 1021.25 1021.42 1021.40 1021.29 1021.18 1021.03 1021.07 1020.81 1020.32 1019.87 1019.47 1018.92 1018.34 1017.79 1017.29 1016.74 1016.19 1015.54 1014.83 1014.07 1013.24 1012.40 1011.60 1010.87
1008.52 1009.26 1010.18 1010.89 1011.65 1012.32 1013.21 1014.12 1015.10 1015.86 1016.87 1017.90 1018.87 1019.70 1020.34 1020.90 1021.24 1021.49 1021.74 1021.97 1021.93 1021.83 1021.69 1021.44 1021.23 1021.10 1020.78 1020.35 1019.98 1019.62 1019.22 1018.53 1017.97 1017.43 1016.86 1016.29 1015.70 1015.09 1014.33 1013.54 1012.68 1011.80 1010.94 1010.26
1008.70 1009.20 1010.06 1010.94 1011.86 1012.56 1013.63 1014.69 1015.70 1016.75 1017.95 1019.11 1020.02 1020.72 1021.24 1021.68 1021.99 1022.10 1022.10 1022.04 1021.85 1021.58 1021.17 1020.97 1020.77 1020.56 1020.20 1019.85 1019.44 1019.22 1018.73 1018.15 1017.59 1017.02 1016.49 1015.88 1015.19 1014.56 1013.83 1013.04 1012.20 1011.41 1010.60 1009.78
1008.88 1009.48 1010.21 1011.28 1012.22 1013.15 1014.36 1015.76 1016.80 1018.10 1019.21 1020.09 1021.05 1021.45 1021.79 1021.96 1022.06 1022.10 1022.00 1021.74 1021.34 1021.09 1020.72 1020.50 1020.34 1020.03 1019.74 1019.51 1019.17 1018.87 1018.21 1017.75 1017.24 1016.67 1016.11 1015.53 1014.84 1014.10 1013.35 1012.58 1011.83 1011.03 1010.24 1009.48
1009.00 1009.83 1010.81 1012.06 1013.62 1014.48 1015.71 1016.90 1017.81 1019.23 1020.40 1021.04 1021.33 1021.74 1021.96 1021.95 1021.78 1021.73 1021.64 1021.00 1020.66 1020.60 1020.56 1020.38 1020.08 1019.71 1019.46 1019.27 1019.02 1018.36 1017.77 1017.31 1016.88 1016.38 1015.82 1015.21 1014.52 1013.81 1013.05 1012.26 1011.49 1010.77 1010.01 1009.25
1009.44 1011.16 1012.48 1013.58 1014.57 1016.08 1017.04 1017.79 1018.86 1020.07 1020.79 1021.28 1021.54 1021.68 1021.76 1021.63 1021.12 1021.06 1020.87 1020.73 1020.44 1020.56 1020.53 1020.39 1020.09 1019.63 1019.38 1019.04 1018.55 1017.93 1017.42 1016.94 1016.55 1016.02 1015.48 1014.93 1014.28 1013.51 1012.71 1011.96 1011.23 1010.53 1009.79 1009.05
1010.87 1012.10 1013.43 1014.31 1015.23 1016.56 1017.51 1018.57 1019.61 1020.25 1020.67 1021.06 1021.30 1021.41 1021.38 1021.06 1020.87 1020.61 1020.48 1020.34 1020.35 1020.33 1020.34 1020.13 1019.78 1019.36 1019.08 1018.59 1018.14 1017.65 1017.24 1016.72 1016.20 1015.69 1015.16 1014.62 1013.99 1013.26 1012.49 1011.74 1011.05 1010.30 1009.58 1008.82
1011.57 1012.92 1013.97 1014.92 1015.93 1016.97 1018.10 1019.19 1019.63 1020.05 1020.31 1020.62 1020.88 1021.11 1020.97 1020.59 1020.57 1020.48 1020.35 1020.23 1020.14 1019.99 1019.76 1019.47 1019.22 1018.90 1018.65 1018.20 1017.73 1017.29 1016.86 1016.32 1015.86 1015.38 1014.90 1014.37 1013.74 1013.00 1012.28 1011.60 1010.88 1010.18 1009.49 1008.73
1012.21 1013.39 1014.35 1015.31 1016.30 1017.12 1017.87 1018.60 1019.05 1019.55 1019.82 1019.74 1019.98 1020.13 1020.23 1020.42 1020.59 1020.46 1020.41 1020.18 1019.99 1019.72 1019.48 1019.21 1018.84 1018.49 1018.13 1017.78 1017.30 1016.84 1016.31 1015.90 1015.46 1015.08 1014.63 1014.12 1013.51 1012.80 1012.16 1011.54 1010.90 1010.20 1009.44 1008.74
1012.95 1013.84 1014.54 1015.36 1016.09 1016.86 1017.47 1018.01 1018.25 1018.70 1019.04 1019.45 1019.78 1020.09 1020.33 1020.53 1020.45 1020.31 1020.20 1019.96 1019.73 1019.54 1019.25 1018.96 1018.61 1018.26 1017.76 1017.33 1016.88 1016.30 1015.83 1015.45 1015.13 1014.80 1014.42 1013.92 1013.37 1012.74 1012.12 1011.52 1010.91 1010.23 1009.50 1008.86
1013.55 1014.01 1014.70 1015.90 1016.56 1017.00 1017.47 1017.90 1018.37 1018.85 1019.27 1019.67 1020.00 1020.09 1020.13 1020.20 1020.14 1020.15 1019.95 1019.80 1019.55 1019.25 1019.01 1018.68 1018.31 1017.86 1017.28 1016.84 1016.42 1015.88 1015.35 1015.07 1014.82 1014.53 1014.17 1013.73 1013.25 1012.68 1012.12 1011.58 1011.01 1010.37 1009.73 1009.16
Wind_Speed
5 4 5 8 8 8 11 11 7 1 7 5 2 3 6 9 10 12 12 12 12 11 11 11 11 11 9 9 9 8 5 2 5 7 10 9 11 9 10 9 10 12 11 9
4 10 7 9 12 12 12 10 8 3 8 9 1 2 6 8 9 11 13 14 14 14 14 13 12 11 10 11 10 8 7 5 6 6 5 6 9 9 10 11 11 10 11 9
2 2 5 9 19 16 13 11 9 8 7 4 2 5 7 7 8 10 11 12 14 14 13 12 11 11 11 11 11 9 8 10 10 7 6 6 5 6 8 10 9 8 7 9
1 3 5 6 3 15 15 13 10 9 1 2 3 4 6 12 9 10 11 12 12 11 12 11 11 11 12 13 12 13 11 12 13 13 13 7 6 5 5 6 8 9 10 8
4 7 9 14 12 12 13 12 10 8 6 4 1 5 9 9 8 9 10 10 10 11 11 10 13 13 12 11 11 12 13 12 12 13 13 12 9 5 4 7 8 7 8 10
4 4 6 1 7 10 5 9 10 12 7 4 1 3 6 7 7 8 9 8 11 11 10 11 11 10 11 11 11 12 13 13 12 12 11 12 11 11 10 11 12 11 12 11
7 6 7 10 11 11 6 2 11 11 8 6 4 4 7 6 7 8 7 8 9 9 8 8 8 9 10 9 11 12 12 11 11 11 11 9 9 9 11 11 11 11 12 10
8 8 11 12 16 11 5 5 10 9 7 4 2 3 0 4 6 7 8 8 7 7 7 5 6 8 11 12 11 11 12 13 13 12 10 8 9 10 13 13 13 13 13 10
11 7 3 9 10 9 6 10 8 8 6 7 6 5 2 2 4 6 7 8 8 8 7 8 8 8 9 10 11 13 13 13 13 13 10 10 12 11 10 9 8 10 9 10
11 13 9 9 12 11 8 8 10 7 6 8 6 4 2 1 3 5 6 7 8 9 10 9 9 10 9 9 9 11 13 14 13 10 11 11 10 8 9 9 9 9 9 10
10 7 8 12 12 12 14 9 7 7 7 7 5 5 2 1 3 4 6 7 8 8 9 11 11 11 10 9 8 9 11 12 12 9 11 12 9 8 9 10 10 11 11 10
8 12 8 7 11 11 12 12 9 8 8 6 6 5 3 2 3 4 5 6 7 9 10 11 11 12 12 12 8 9 11 10 8 8 9 8 9 10 11 15 18 19 19 16
9 8 10 11 12 13 13 14 12 10 10 11 9 5 4 2 2 1 3 6 7 8 8 9 9 9 9 8 7 10 12 13 10 10 9 9 9 10 11 10 14 16 18 20
12 11 9 9 6 7 8 13 11 10 8 5 7 6 4 2 2 4 4 5 5 6 7 8 10 11 8 6 8 11 12 11 9 8 10 9 9 10 10 11 11 10 11 14
12 13 11 10 9 9 10 11 12 11 9 8 6 5 4 3 4 4 5 7 7 8 7 9 9 10 10 6 9 13 12 8 9 10 9 9 9 10 10 10 11 11 11 12
12 12 13 13 13 13 12 12 12 12 11 10 8 7 5 3 4 6 6 6 7 7 9 8 9 9 9 10 10 9 9 11 10 9 9 8 9 10 10 10 11 11 10 11
16 14 13 13 13 13 14 12 13 12 11 9 8 5 3 3 5 6 8 8 9 9 10 10 9 9 7 10 11 8 8 10 12 9 9 9 9 10 10 10 10 11 11 10
14 12 12 11 10 12 12 10 10 10 8 7 7 7 5 2 4 5 6 7 9 11 11 10 5 6 8 10 9 7 8 10 10 10 9 9 9 10 10 11 11 12 11 11
14 14 14 14 12 11 11 11 8 10 10 8 5 3 2 1 4 5 4 6 9 9 6 4 6 6 9 9 6 5 9 10 10 9 9 12 10 10 10 11 11 11 11 11
13 12 13 12 12 12 9 13 14 11 7 7 6 3 1 2 4 5 6 7 9 7 7 6 6 7 5 9 6 7 9 9 10 10 8 10 10 11 11 12 12 11 10 10
13 12 9 9 11 14 12 11 12 10 6 6 5 3 2 4 5 5 6 6 3 5 5 7 8 7 4 7 9 9 9 9 9 9 9 9 10 11 11 11 11 10 10 10
10 12 13 14 15 12 9 10 11 8 6 5 4 3 2 6 6 6 8 5 2 5 5 6 8 8 8 10 8 9 9 9 9 9 9 9 10 11 11 11 10 10 10 9
13 15 13 12 14 13 11 9 7 6 5 4 4 3 4 3 4 4 5 4 3 4 5 7 9 11 12 7 7 8 9 10 9 9 8 9 10 10 10 10 10 10 9 10
15 14 13 13 13 12 11 8 7 6 4 4 5 6 4 2 2 3 4 5 6 5 6 6 7 8 10 7 8 8 9 8 8 7 8 11 9 10 9 9 9 9 9 10
15 14 13 12 10 7 9 9 7 6 7 6 5 6 3 3 3 4 5 5 6 7 7 8 8 10 6 7 8 8 7 7 7 7 8 9 9 10 9 9 9 9 9 8
14 9 9 10 8 7 7 6 5 5 3 3 2 3 1 3 4 5 5 6 7 8 7 7 7 9 8 8 8 9 7 7 6 6 8 8 9 9 8 9 8 9 8 7
10 9 9 7 5 5 4 4 3 4 3 1 2 1 3 3 4 5 6 7 7 6 7 7 8 9 9 8 8 9 6 5 5 6 7 8 8 8 8 7 8 8 7 6
Wind_Direction
269 296 262 255 244 231 219 216 264 257 269 119 87 336 350 4 3 13 11 14 9 4 5 15 9 9 2 13 3 348 332 35 14 0 353 2 355 357 359 357 350 344 348 341
318 262 245 253 243 238 242 256 245 265 266 92 25 317 7 354 25 7 359 2 2 0 2 0 357 354 4 1 346 337 5 339 29 351 358 3 346 350 352 350 337 339 332 341
235 211 288 279 237 231 226 221 224 213 93 90 52 9 355 329 46 8 3 0 354 352 353 354 349 353 1 343 339 347 350 9 2 353 347 323 323 334 347 334 323 323 328 320
240 313 235 239 291 202 219 210 215 251 106 92 24 350 351 59 29 7 5 3 357 352 351 341 343 9 357 348 348 345 17 3 356 348 345 329 356 353 321 318 328 327 326 324
215 211 285 286 208 197 205 221 213 222 179 189 52 308 95 49 29 16 10 2 359 354 340 347 21 9 347 347 348 346 0 355 348 338 337 337 342 334 304 331 322 324 330 332
173 240 225 134 117 187 180 248 226 199 194 169 197 251 99 46 25 15 13 8 7 347 349 20 14 353 342 351 353 357 343 339 334 333 331 337 340 339 340 335 336 330 323 330
196 241 271 263 132 143 168 264 180 175 165 170 210 47 37 19 12 16 9 18 10 353 359 38 5 354 348 345 353 342 338 329 325 318 329 335 332 333 331 327 320 320 318 314
212 212 247 225 149 182 188 112 112 132 145 165 177 96 265 15 5 2 357 6 8 348 346 23 11 357 347 351 340 340 330 319 319 330 326 330 341 333 322 321 318 316 313 308
196 210 267 181 162 186 158 149 157 168 162 167 177 199 81 358 356 2 351 358 3 345 340 350 7 15 351 333 332 327 323 323 331 324 343 345 335 321 318 310 303 307 312 312
178 227 225 192 182 187 186 180 170 162 200 165 191 148 197 347 3 353 1 353 349 345 341 340 350 348 335 333 332 325 322 326 320 333 336 329 319 312 316 310 307 306 304 304
228 230 218 194 220 183 187 187 200 172 197 174 174 184 150 85 30 3 352 354 351 342 340 336 339 330 326 326 329 328 323 317 321 322 320 317 308 303 299 294 291 299 300 301
226 216 222 210 207 226 186 186 205 193 187 157 190 185 154 127 62 13 354 348 344 347 344 341 332 329 326 325 332 333 320 318 312 313 310 302 306 303 277 268 276 276 276 275
207 227 221 219 206 213 221 196 189 206 197 184 178 189 149 128 84 326 331 323 340 339 340 332 324 313 308 329 338 329 318 317 318 310 312 315 311 310 309 303 286 279 277 278
214 227 222 216 190 200 244 218 165 188 187 163 172 156 156 175 213 277 314 328 313 318 339 332 323 328 319 355 327 318 319 313 309 311 314 308 309 307 305 306 308 309 298 285
211 213 237 202 204 200 215 220 164 174 163 170 181 184 178 221 275 308 309 314 333 331 339 327 323 328 343 321 311 322 318 308 311 311 309 301 305 302 298 299 300 302 304 299
215 217 217 217 196 188 190 191 165 183 180 187 180 187 200 236 284 300 314 337 343 333 328 323 326 331 343 331 310 307 311 305 303 302 308 301 310 303 302 302 303 302 302 300
213 204 211 201 191 202 183 191 178 191 177 179 188 186 208 311 333 329 334 347 335 334 323 324 320 334 339 319 310 305 311 310 307 303 306 301 307 305 304 302 301 301 299 301
221 193 202 199 199 185 179 175 184 181 150 150 83 70 67 12 320 338 340 327 313 308 305 298 283 298 283 293 296 299 302 307 309 305 307 306 304 306 303 302 302 303 307 308
201 201 186 199 196 174 169 174 166 103 91 94 106 102 73 3 292 297 303 300 303 300 302 279 276 271 297 302 287 292 298 307 306 307 309 308 305 307 305 304 305 308 308 308
198 197 177 179 182 161 144 105 107 99 106 107 115 124 187 282 288 289 285 278 266 269 270 298 301 293 293 316 319 310 306 305 305 307 310 311 308 310 308 308 309 309 309 310
190 180 156 113 87 95 107 108 108 115 118 131 139 152 229 280 267 261 268 276 334 331 331 311 319 315 314 318 314 299 303 308 310 312 312 311 311 311 311 311 312 312 312 312
129 108 110 116 111 104 105 106 109 124 137 142 147 170 214 264 252 242 233 264 331 15 353 326 315 327 320 313 309 301 305 311 311 311 312 313 313 313 314 316 317 316 314 314
118 117 120 120 116 120 109 104 123 145 144 158 156 200 240 287 281 320 315 328 316 315 316 309 305 304 310 302 303 303 311 307 308 311 312 314 313 313 314 316 318 317 319 318
123 120 116 111 115 113 128 147 156 152 148 191 194 207 245 303 339 292 308 323 314 288 281 277 285 290 316 304 301 298 295 298 306 309 315 318 314 314 316 319 321 321 320 318
120 123 122 128 137 148 136 148 148 158 193 205 156 179 219 1 322 313 309 301 307 311 324 309 298 295 300 297 298 292 288 300 301 311 317 318 316 317 320 322 322 321 319 324
131 132 140 149 138 144 143 167 159 142 142 136 146 88 33 300 299 302 317 300 321 318 311 316 318 310 298 295 299 293 291 298 305 313 315 316 317 318 321 324 324 323 326 328
129 114 110 104 103 106 99 102 126 115 105 98 258 313 319 309 311 307 311 309 302 306 314 310 308 305 303 301 299 297 290 294 304 313 316 319 320 321 324 324 322 325 331 338